Yankton, SD

8:34 PM CST on December 14, 2019 (GMT -0600)
Gurney Municipal

Weather History for KYKN - October, 2019

Change the Weather History Date:

Wednesday, October 23, 2019

  Actual Average Record
Temperature  
Mean Temperature - -  
Max Temperature - 61 °F 86 °F (1991)
Min Temperature - 38 °F 22 °F (1964)
Moisture  
Dew Point -    
Average Humidity    
Maximum Humidity    
Minimum Humidity    
Precipitation  
Precipitation 0.18 in - - ()
Sea Level Pressure  
Sea Level Pressure 29.98 in    
Wind  
Wind Speed 7 mph (North)    
Max Wind Speed 21 mph    
Max Gust Speed 29 mph    
Visibility 10 miles    
Events Rain    
Averages and records for this station are not official NWS values.
T = Trace of Precipitation, MM = Missing Value Source: NWS Daily Summary

Daily Weather History Graph

Daily Weather History Graph

Search for Another Location

Airport or City:

Astronomy

Oct. 23, 2019 Rise Set
Actual Time 7:52 AM CDT 6:34 PM CDT
Civil Twilight 7:23 AM CDT 7:03 PM CDT
Nautical Twilight 6:50 AM CDT 7:36 PM CDT
Astronomical Twilight 6:17 AM CDT 8:09 PM CDT
Moon 2:01 AM CDT (10/23) 4:35 PM CDT (10/23)
Length of Visible Light 11h 40m
Length of Day
10h 42m
Waning Crescent, 26% of the Moon is Illuminated
Oct 23
Waning Crescent
Oct 27
New
Nov 4
First Quarter
Nov 12
Full
Nov 19
Last Quarter

Hourly Weather History & Observations

Time (CDT) Temp. Dew Point Humidity Pressure Visibility Wind Dir Wind Speed Gust Speed Precip Events Conditions
12:56 AM - - N/A% 29.79 in 10.0 mi Calm Calm - N/A   Mostly Cloudy
1:56 AM - - N/A% 29.79 in 10.0 mi East 3.5 mph - N/A   Overcast
2:56 AM - - N/A% 29.78 in 10.0 mi ENE 4.6 mph - N/A   Overcast
3:56 AM - - N/A% 29.76 in 10.0 mi East 4.6 mph - N/A   Overcast
4:56 AM - - N/A% 29.78 in 10.0 mi ENE 3.5 mph - N/A   Overcast
5:56 AM - - N/A% 29.77 in 10.0 mi East 5.8 mph - 0.00 in   Mostly Cloudy
6:56 AM - - N/A% 29.78 in 10.0 mi ESE 3.5 mph - N/A   Overcast
7:56 AM - - N/A% 29.78 in 10.0 mi NE 5.8 mph - N/A   Overcast
8:56 AM - - N/A% 29.82 in 8.0 mi ENE 5.8 mph - 0.03 in Rain Rain
9:56 AM - - N/A% 29.85 in 10.0 mi North 4.6 mph - 0.12 in   Overcast
10:56 AM - - N/A% 29.86 in 10.0 mi NE 5.8 mph - 0.01 in Rain Light Rain
11:34 AM - - N/A% 29.89 in 10.0 mi NNW 4.6 mph - 0.00 in   Overcast
11:56 AM - - N/A% 29.89 in 10.0 mi NNE 5.8 mph - 0.00 in   Overcast
12:26 PM - - N/A% 29.91 in 10.0 mi NE 6.9 mph - N/A   Overcast
12:56 PM - - N/A% 29.92 in 10.0 mi NNE 6.9 mph - N/A   Overcast
1:30 PM - - N/A% 29.92 in 10.0 mi NE 9.2 mph - N/A   Overcast
1:43 PM - - N/A% 29.93 in 10.0 mi NNE 6.9 mph - N/A   Overcast
1:56 PM - - N/A% 29.94 in 10.0 mi NNE 9.2 mph - 0.00 in Rain Light Rain
2:43 PM - - N/A% 29.95 in 10.0 mi NE 8.1 mph - 0.00 in   Overcast
2:56 PM - - N/A% 29.95 in 10.0 mi NNE 10.4 mph - 0.00 in   Overcast
3:56 PM - - N/A% 30.00 in 10.0 mi North 6.9 mph - 0.00 in   Overcast
4:16 PM - - N/A% 30.01 in 9.0 mi North 11.5 mph - 0.00 in   Overcast
4:36 PM - - N/A% 30.03 in 10.0 mi NNW 16.1 mph - 0.00 in Rain Light Rain
4:56 PM - - N/A% 30.05 in 10.0 mi NNW 15.0 mph - 0.01 in Rain Light Rain
5:38 PM - - N/A% 30.08 in 10.0 mi NNW 13.8 mph 21.9 mph 0.01 in Rain Light Rain
5:56 PM - - N/A% 30.10 in 10.0 mi NNW 20.7 mph - 0.01 in Rain Light Rain
6:31 PM - - N/A% 30.13 in 10.0 mi NW 19.6 mph - 0.00 in   Overcast
6:36 PM - - N/A% 30.13 in 10.0 mi NW 20.7 mph 28.8 mph 0.00 in   Overcast
6:56 PM - - N/A% 30.15 in 10.0 mi NNW 20.7 mph 24.2 mph 0.00 in Rain Light Rain
7:13 PM - - N/A% 30.17 in 10.0 mi NW 16.1 mph - 0.00 in Rain Light Rain
7:56 PM - - N/A% 30.21 in 10.0 mi NW 10.4 mph - 0.00 in Rain Light Rain
8:56 PM - - N/A% 30.24 in 10.0 mi WNW 12.7 mph - N/A   Overcast
9:56 PM - - N/A% 30.25 in 10.0 mi NW 12.7 mph - N/A   Overcast
10:56 PM - - N/A% 30.25 in 10.0 mi NW 9.2 mph - N/A   Scattered Clouds
11:56 PM - - N/A% 30.29 in 10.0 mi West 6.9 mph - N/A   Mostly Cloudy